Back to catalog

COSMOS 1275 DEB

LostPO
NORAD 42139·DEBRIS·🇷🇺 Russia

Launched Jun 4, 1981 from Plesetsk Cosmodrome

Loading…

Next Passes (next 24 hours)

TLE

StaleSource: Space-Track

Epoch: Sep 21, 2024, 12:47 UTC

1 42139U 81053RB  24265.53264535  .00002484  00000-0  18584-2 0  9994
2 42139  83.0047 353.2947 0047719   7.9249 352.2660 13.93746586501917

Track COSMOS 1275 DEB in real time with AllMySat

Download on the App Store